Погода в Светогорске

Россия / Санкт-Петербург и Ленинградская область     61˚06′40″N   28˚52′21″E
темп.,
°C
ветер,
м/с
пор.,
м/с
влажн.,
%
обл.,
%
осадки,
мм/ч
давл.,
гПа
погр.,
м
17 января, вс
вс1700:00−12˚зюз129627 0.0 101826
03:00−11˚з249654 0.1 1017130
06:00−10˚з259691 0.1 1015171
09:00−9˚з259695 0.2 1015168
12:00−7˚зсз369495 0.1 1015296
15:00−5˚зсз369598 0.3 1015299
18:00−6˚зсз259797 0.2 1015143
21:00−6˚зсз239697 0.3 101595
18 января, пн
пн1800:00−6˚зсз249693 0.0 1015121
03:00−6˚зсз239695 0.1 101584
06:00−7˚зсз239786 0.0 101459
09:00−8˚з229784 0.0 101547
12:00−7˚зюз129695 0.1 101598
15:00−7˚ююз129585 0.1 101547
18:00−9˚ююз229747 0.0 101425
21:00−7˚ююв229768 0.1 101464
19 января, вт
вт1900:00−5˚ююз269899 0.3 1014174
03:00−5˚юз269799 0.4 1014188
06:00−5˚юз389699 0.3 1012271
09:00−7˚ююз279699 0.3 1012164
12:00−6˚ююз289467 0.0 1012307
15:00−4˚ююз368983 0.1 1012525
18:00−4˚юз3790100 0.1 1012490
21:00−5˚юз3787100 0.1 1012480
20 января, ср
ср2000:00−8˚ююз259334 0.0 1012144
03:00−8˚ююз259416 0.0 1012113
06:00−8˚ю27950 0.0 1012173
09:00−10˚ююв38930 0.0 1011215
12:00−9˚ююв38830 0.0 1011361
15:00−8˚ююв368833 0.0 1010422
18:00−9˚юв3691100 0.1 1008311
21:00−10˚юв3693100 0.1 1006249
21 января, чт
чт2100:00−9˚вюв3794100 0.6 1005288
03:00−8˚юв3694100 1.5 1003354
06:00−8˚вюв3694100 0.9 1001353
09:00−8˚в3794100 1.9 1001353
12:00−7˚в4994100 1.4 1001414
15:00−5˚в51195100 3.9 1000522
18:00−5˚в51295100 3.4 1001528
21:00−5˚в51195100 6.1 1001527